Theta_e
324 318 304 307 299 295 291 295 296 298 297 301 305 317 315 315 313 305 329 335 340 342 346 348 349 351 352 352 351 351 350 347 345 345 344 344 344 343 342 342 344 343 342 346 348 347 347 343 343
321 311 307 301 294 289 291 296 297 300 301 304 310 313 316 314 322 323 326 339 342 344 346 347 347 350 351 351 350 349 348 347 345 344 344 343 343 342 340 339 343 341 338 339 345 344 342 342 341
311 308 303 298 290 285 289 290 290 297 298 302 311 319 320 319 325 324 336 340 344 343 345 345 345 349 350 350 349 348 348 347 346 344 343 341 341 340 339 340 340 339 338 336 341 340 339 338 337
305 305 302 291 285 288 287 290 292 295 299 302 311 314 325 321 324 332 339 342 342 343 344 343 346 346 348 348 348 348 347 347 345 343 341 340 339 340 341 340 339 336 336 336 337 337 336 335 334
304 302 296 289 287 289 292 295 295 296 296 299 314 313 316 304 315 330 338 341 341 343 344 344 342 346 346 347 347 347 346 345 344 342 340 339 340 340 340 338 337 336 335 335 335 334 333 332 332
303 300 294 288 289 293 296 298 294 293 295 297 310 313 308 302 304 313 324 327 336 341 343 342 335 339 342 345 346 346 345 344 343 342 341 339 339 340 339 337 336 336 335 334 334 334 333 331 330
302 299 294 292 292 294 297 297 293 292 291 291 296 304 302 298 304 309 311 311 315 314 327 337 340 338 334 336 338 340 342 342 342 341 341 339 339 339 339 339 337 338 337 336 335 334 332 331 331
303 303 294 295 292 292 297 296 296 293 290 297 296 289 289 298 304 305 307 307 308 310 311 313 317 337 337 338 333 335 337 338 338 337 335 333 334 335 334 333 337 338 336 335 334 334 334 332 331
310 298 293 294 295 295 296 295 298 298 294 294 295 293 297 299 301 301 300 302 305 307 308 309 312 314 328 338 334 331 332 333 333 332 328 326 331 332 329 329 333 337 337 337 336 335 334 331 328
303 297 296 299 299 294 294 294 296 293 292 292 291 294 296 296 296 295 296 297 300 302 305 306 308 309 313 332 335 336 335 335 334 333 331 330 329 330 331 326 328 332 332 335 336 335 331 324 317
302 295 299 299 302 302 296 295 295 294 289 290 288 290 292 292 292 293 293 295 296 300 302 304 307 307 309 315 329 335 336 335 335 332 332 330 329 327 328 326 326 326 322 327 330 327 323 318 314
298 302 301 300 302 302 298 298 293 292 290 293 292 292 291 290 290 290 291 293 294 296 299 301 304 304 307 312 314 322 334 335 334 335 332 330 327 325 325 324 325 323 324 323 324 321 320 316 309
297 298 301 300 303 300 297 293 292 291 294 294 292 291 290 290 290 291 291 292 293 293 295 298 301 302 305 306 309 313 316 330 330 332 332 332 329 326 324 324 324 323 322 322 321 320 319 314 307
298 291 291 298 295 294 291 289 291 290 293 290 290 289 289 289 289 289 289 290 290 292 293 296 297 299 302 304 305 309 312 314 328 333 332 332 330 327 325 325 325 324 322 322 321 319 318 313 306
291 284 285 286 290 292 294 285 284 289 289 287 287 288 288 288 289 288 288 288 289 290 291 293 295 296 298 301 303 304 307 310 313 317 331 332 331 327 326 326 326 326 324 321 320 319 316 310 305
285 285 279 284 288 291 291 280 286 288 287 285 286 286 286 287 288 288 288 288 288 289 289 291 293 293 295 298 301 302 304 305 310 313 318 311 321 330 326 325 326 327 325 324 321 318 314 310 306
280 276 277 279 287 287 287 280 285 287 285 284 284 284 285 285 286 287 288 288 288 288 288 289 290 290 292 295 297 299 301 303 304 306 306 308 312 311 327 327 327 327 327 325 323 320 320 314 307
275 274 275 275 282 284 281 280 282 284 283 282 283 283 284 284 285 287 287 288 288 288 288 288 289 289 290 292 293 295 297 299 302 302 303 305 305 308 310 315 327 326 325 325 324 320 314 311 310
274 274 273 274 281 281 279 279 279 281 281 281 281 281 282 283 285 286 287 287 287 287 287 288 288 288 289 289 290 291 291 294 297 299 301 300 302 304 306 307 310 325 324 324 322 320 312 306 305
275 274 273 276 282 281 280 277 279 280 280 281 281 281 282 283 283 284 285 285 286 286 287 287 287 287 288 289 290 291 291 292 293 295 297 298 300 300 303 305 308 310 323 323 321 317 309 310 305
274 273 273 275 280 281 280 275 276 279 280 280 280 281 281 281 282 283 283 283 284 285 286 286 287 287 288 289 289 289 290 290 290 291 292 295 297 299 300 301 302 302 307 321 321 318 314 308 303
274 276 276 276 275 270 282 264 274 276 276 277 278 278 279 280 282 282 283 282 282 283 285 286 287 287 288 288 287 286 286 286 289 290 291 292 294 296 297 298 298 300 302 306 314 321 319 317 306
275 277 276 277 274 271 272 266 271 275 274 273 275 277 278 280 280 281 282 283 283 283 283 284 285 286 287 287 287 286 285 286 288 289 289 289 291 293 295 296 296 296 298 301 303 310 319 319 316
277 277 277 275 273 262 268 268 268 273 275 274 274 276 278 279 280 281 282 283 282 283 283 283 284 285 286 286 286 285 285 285 285 286 286 287 288 290 291 293 294 295 295 297 299 304 311 314 318
275 271 258 260 258 261 270 265 270 274 274 274 275 275 277 278 278 279 280 280 281 281 282 283 283 284 285 285 285 285 285 285 285 285 285 285 286 287 288 290 291 293 294 295 297 300 305 309 312
273 269 261 256 259 261 269 262 268 276 276 276 276 276 277 277 278 279 279 279 280 281 281 281 282 282 284 284 284 285 285 285 285 285 285 285 285 286 287 288 289 292 293 293 295 297 301 306 308
270 267 272 256 250 256 264 271 275 276 274 274 274 274 274 276 277 278 279 279 279 280 280 280 281 281 282 283 284 284 284 284 284 285 285 285 286 286 286 286 287 290 291 292 292 294 297 301 305
273 274 263 258 254 253 261 263 265 274 275 275 273 273 275 276 277 278 279 278 279 279 280 280 280 281 281 282 283 284 284 284 284 284 284 284 285 285 284 285 285 287 290 291 291 291 294 297 300
269 269 267 263 261 254 254 263 267 272 276 275 272 275 275 277 277 277 279 278 279 279 280 279 279 280 281 282 282 283 283 283 283 283 283 283 284 284 283 284 284 285 287 290 289 289 291 294 296
272 268 267 258 257 261 261 262 275 275 275 274 275 277 276 277 277 278 278 278 278 278 279 279 280 280 281 281 282 282 283 282 282 282 282 283 283 283 282 283 283 284 286 288 288 288 288 290 292
Wind_Speed
18 7 1 5 4 5 1 0 3 2 1 3 4 13 12 4 5 2 4 1 8 7 5 11 11 10 13 15 13 13 12 13 13 13 13 13 13 14 13 13 9 9 8 12 14 13 13 12 11
6 3 4 2 5 3 3 4 4 5 5 1 7 5 9 6 6 3 2 4 8 8 5 7 10 9 14 13 12 13 11 12 13 12 12 12 12 12 12 12 11 9 10 9 12 13 9 9 9
2 3 3 4 5 2 3 6 8 7 6 5 6 7 6 11 10 5 6 8 8 6 5 6 8 10 12 11 11 11 10 10 11 12 11 10 10 11 11 10 9 9 9 9 9 9 8 8 8
3 6 5 5 6 6 4 10 7 8 7 13 4 9 8 21 14 8 5 7 9 6 5 7 10 11 12 11 11 10 9 9 9 10 10 10 10 9 8 11 9 9 10 9 8 7 6 6 6
4 4 4 4 6 4 5 7 11 14 4 11 5 9 8 18 21 14 4 5 10 7 6 4 9 10 10 10 10 10 10 9 8 8 8 8 9 9 10 10 10 9 8 8 7 6 5 4 4
6 3 3 4 5 5 5 11 6 12 8 8 8 5 8 16 31 25 19 18 11 8 8 4 7 9 10 10 9 9 8 9 8 7 8 8 8 9 9 10 10 9 8 8 7 7 5 4 4
8 4 2 4 7 8 11 11 16 12 18 16 10 6 4 29 24 17 19 22 20 23 18 7 5 6 9 7 8 8 8 7 8 8 8 6 6 7 8 8 8 8 8 8 7 6 5 4 3
5 4 5 2 6 7 12 8 14 18 20 2 11 11 7 22 19 15 20 21 20 20 19 18 19 5 6 6 10 9 6 5 6 7 7 7 6 5 6 6 6 7 7 7 7 7 5 3 3
2 4 7 6 1 7 11 7 10 12 19 25 11 12 12 17 15 24 24 25 21 19 20 18 19 15 15 6 7 11 10 8 5 5 6 5 3 4 5 6 7 7 7 7 6 5 4 3 3
4 4 5 6 4 16 18 20 6 14 23 15 19 17 16 15 26 26 25 20 22 20 20 19 19 18 16 11 5 5 7 5 5 4 5 4 4 4 4 4 6 7 8 7 6 4 3 2 1
3 5 10 8 8 8 14 27 15 5 18 16 17 18 20 23 24 24 22 19 19 19 17 17 16 16 16 14 10 3 4 4 5 7 7 4 3 3 3 2 3 3 5 3 4 2 1 2 1
9 11 10 4 4 4 6 12 22 22 14 14 16 16 21 26 23 21 20 20 19 20 22 19 21 18 17 10 10 11 5 3 4 8 10 6 4 4 3 3 4 4 3 4 4 3 3 3 2
11 13 14 11 12 21 26 20 17 17 13 14 17 23 23 21 21 18 17 17 18 21 21 22 21 18 16 14 12 11 11 7 5 3 6 6 6 6 5 4 4 4 4 4 4 4 4 4 4
5 17 14 11 19 15 25 18 10 12 10 18 22 21 19 21 21 18 21 19 20 18 20 17 19 19 17 15 14 10 10 13 11 5 6 9 7 7 7 6 6 5 5 5 5 5 4 4 4
11 16 17 14 5 8 10 21 15 10 12 18 18 17 18 19 19 19 17 18 17 16 16 19 19 20 17 18 14 11 11 11 10 10 12 9 9 8 9 8 8 8 7 6 4 4 3 4 3
6 6 6 9 11 6 7 8 12 10 12 16 16 14 15 17 17 17 16 16 17 17 19 17 15 18 18 16 13 10 11 9 12 12 13 19 19 8 7 8 8 8 7 7 6 5 4 4 5
9 4 6 4 17 2 8 9 9 9 12 14 12 12 12 13 14 14 15 15 16 16 18 19 18 19 17 16 13 11 13 11 10 11 12 16 17 20 11 9 9 8 8 8 8 7 7 6 5
2 5 7 6 8 18 18 12 7 7 10 10 9 10 11 12 14 12 14 14 14 15 16 17 16 19 17 12 12 11 9 9 10 11 12 17 16 17 15 13 11 8 7 8 7 8 7 4 5
6 5 7 3 2 9 9 10 6 6 7 8 8 8 9 9 7 10 12 12 13 15 16 18 19 19 16 14 14 13 14 12 10 9 14 14 16 17 16 13 14 9 10 12 11 8 7 4 7
8 5 5 0 6 7 8 7 5 4 4 5 6 7 7 7 8 9 10 11 13 14 14 15 16 16 15 12 11 9 10 8 9 10 12 15 17 18 15 15 15 17 11 12 11 11 4 5 9
5 6 3 4 2 7 7 4 4 2 4 5 6 5 6 7 7 8 9 8 8 11 12 13 13 13 12 14 10 11 10 9 11 13 13 15 16 16 16 17 15 16 15 12 12 12 13 8 7
3 3 1 4 4 3 0 4 3 4 3 4 5 6 6 6 7 6 7 7 7 8 8 9 11 12 12 13 11 13 10 12 11 10 12 13 16 15 16 16 17 16 14 16 16 11 14 13 10
1 3 3 2 4 4 5 5 5 5 3 3 3 5 6 6 6 7 7 6 6 7 7 7 8 9 11 11 10 9 10 9 8 10 15 14 13 15 15 16 17 15 11 13 17 17 14 12 11
6 2 5 4 3 4 4 5 4 5 5 4 1 2 5 6 6 7 6 6 6 6 7 7 7 8 9 10 10 11 11 12 11 12 11 11 11 12 15 17 14 15 15 15 15 17 16 13 12
9 7 5 7 7 5 2 4 7 4 3 5 4 3 5 6 6 7 8 7 7 7 7 7 9 10 10 10 9 10 9 11 11 12 10 13 11 12 15 17 16 14 17 16 15 15 17 13 10
5 4 6 4 2 5 6 5 5 5 5 4 4 3 5 7 7 8 8 8 7 6 7 7 7 7 9 10 11 10 8 7 8 9 10 9 9 10 14 15 15 16 16 17 15 12 12 14 12
5 6 3 9 1 4 4 7 1 5 4 5 5 2 5 6 8 9 9 8 7 7 7 6 7 7 7 7 7 10 9 10 10 12 10 8 11 11 14 15 16 16 16 16 18 12 14 14 13
6 4 3 5 2 5 5 6 6 6 8 6 4 5 8 8 9 8 9 8 6 7 6 7 7 7 6 8 7 9 10 10 10 10 12 13 13 14 15 15 15 16 16 16 16 15 14 15 12
4 2 6 5 4 6 1 8 7 4 5 7 5 6 9 10 10 9 9 8 7 7 7 7 7 7 7 6 7 8 10 11 10 10 11 12 13 14 15 15 16 16 16 15 14 18 18 16 15
2 4 4 7 5 1 3 11 2 4 5 3 4 10 9 9 10 11 9 8 7 7 7 8 8 7 7 6 7 9 9 10 11 11 12 12 13 14 14 15 15 16 16 16 15 16 19 18 16
Wind_Direction
313 298 146 41 59 67 282 204 292 15 62 359 9 83 98 61 41 110 4 93 130 134 139 139 138 157 138 127 131 127 121 127 127 126 123 122 119 117 115 110 106 102 112 90 93 88 92 103 102
286 272 44 87 86 78 280 317 5 6 317 305 80 56 52 52 24 40 58 121 139 128 118 131 136 134 128 123 129 120 130 134 133 131 128 127 127 127 122 120 114 116 128 130 95 93 101 107 100
311 344 58 79 73 40 313 2 298 317 351 27 100 58 53 343 345 9 331 126 117 109 108 130 134 135 124 126 122 131 138 137 135 135 134 135 136 132 130 120 120 132 126 131 108 120 113 103 98
56 3 24 62 104 44 4 309 309 338 356 27 104 65 94 31 343 337 45 94 112 97 93 138 131 146 137 133 135 134 135 134 134 136 138 141 138 130 127 120 117 135 141 135 132 128 113 102 94
38 68 41 82 58 342 357 330 344 48 52 2 348 71 72 3 348 354 42 117 125 114 127 153 136 141 136 138 139 138 135 136 135 134 135 141 141 139 129 127 131 142 144 144 141 131 119 98 77
66 51 125 114 89 14 349 360 344 38 33 23 56 95 86 344 15 11 27 22 9 138 151 149 141 145 148 148 142 137 138 138 138 137 132 139 149 144 140 143 152 153 150 151 148 142 132 113 85
101 84 156 121 103 54 20 346 25 45 26 13 313 49 42 7 356 8 34 33 26 24 11 354 169 165 155 151 146 144 142 145 146 144 142 143 149 156 155 162 159 156 160 162 159 152 146 128 93
93 86 113 12 98 66 353 42 44 45 34 122 21 27 355 348 350 355 40 34 30 27 17 359 3 303 161 154 151 139 142 154 160 155 155 158 169 169 155 155 166 171 173 171 166 160 153 135 90
14 104 152 163 70 81 1 45 49 61 70 54 60 49 10 1 8 28 25 24 19 18 16 5 4 351 338 161 176 153 158 168 188 173 175 175 183 191 189 185 181 174 175 181 182 177 164 127 72
48 117 114 77 95 92 57 46 40 50 35 37 36 33 27 23 31 34 27 19 14 15 10 10 3 356 355 337 187 169 164 165 179 192 181 205 194 203 196 206 197 185 189 199 201 195 175 87 60
42 86 103 74 92 130 89 61 41 52 46 34 29 20 24 31 34 31 28 24 16 14 10 5 3 4 3 355 336 274 170 181 182 185 186 211 199 199 202 208 208 212 211 204 218 220 208 232 252
95 69 81 63 38 87 62 84 63 56 65 50 41 34 35 33 31 28 25 18 17 14 10 5 9 7 4 358 1 346 318 225 202 193 183 181 190 205 216 206 207 204 202 218 211 208 230 245 228
77 77 85 108 76 75 68 74 74 53 52 50 45 41 35 35 32 28 25 22 15 16 8 11 11 7 4 5 359 354 343 328 287 238 201 192 192 199 191 209 207 207 200 207 220 224 223 230 232
113 81 64 105 87 83 76 53 49 44 53 54 52 45 42 41 31 26 23 19 19 15 11 359 14 13 2 6 358 359 345 346 323 244 227 213 207 197 200 202 211 216 204 206 201 202 213 222 216
107 94 61 19 7 137 113 46 55 42 60 62 56 51 45 36 32 33 22 19 15 16 12 10 8 9 358 19 358 354 1 348 341 351 332 233 216 207 206 206 210 209 203 208 210 213 199 208 213
39 51 64 13 0 11 75 59 51 50 61 60 54 47 45 38 33 25 23 21 16 13 16 12 12 7 11 10 4 348 4 342 355 350 354 360 334 218 216 220 218 211 202 201 203 200 206 207 200
21 71 39 30 7 91 75 101 56 42 55 58 49 44 41 38 33 27 23 20 16 14 14 13 12 12 9 3 7 355 2 2 348 6 354 352 339 2 300 222 227 213 214 205 199 200 199 207 198
0 90 61 52 4 66 81 91 63 49 62 59 50 45 38 35 27 23 25 22 20 19 18 17 12 11 8 8 2 6 5 4 357 6 355 360 340 354 344 344 261 202 211 222 206 194 192 172 192
95 80 92 38 63 64 78 89 67 40 52 52 43 37 37 29 12 22 23 22 22 22 17 15 11 11 10 8 4 2 359 356 3 357 357 357 345 355 344 346 340 268 211 221 214 216 189 185 153
50 88 24 340 20 82 115 91 83 52 42 44 37 29 20 9 9 12 17 18 20 18 17 16 13 9 10 6 1 354 347 353 355 352 355 355 352 357 348 347 342 341 285 230 212 202 192 181 176
51 77 356 112 54 50 143 134 140 67 77 56 38 23 15 3 0 358 3 360 6 14 8 11 7 7 9 5 357 356 353 353 355 357 354 353 354 349 353 350 340 332 334 297 222 214 206 198 199
63 31 194 148 106 161 240 269 222 175 109 59 37 24 10 2 356 352 351 351 356 355 348 351 0 5 5 1 3 7 1 352 344 340 340 343 347 349 349 346 344 346 337 329 323 232 221 221 195
235 340 153 116 96 88 341 71 276 151 184 134 47 15 351 349 358 350 345 340 336 348 346 337 342 355 357 359 2 357 354 345 336 337 339 342 342 345 346 348 340 338 334 327 326 330 289 223 217
294 140 48 52 62 38 258 117 260 202 196 147 134 327 315 321 330 328 319 328 325 339 347 336 349 347 348 350 349 351 345 339 340 341 341 340 337 339 341 342 341 335 330 334 330 322 307 307 254
24 43 351 2 14 203 319 38 243 210 158 158 194 250 289 304 313 315 326 325 320 334 339 346 349 346 344 347 344 343 331 335 333 335 333 333 333 334 334 337 336 334 331 327 323 319 310 313 296
25 99 133 209 317 282 327 252 264 191 161 173 206 255 306 334 329 314 308 307 304 313 325 336 331 328 334 338 337 336 332 329 325 325 323 320 323 322 323 326 327 327 326 324 320 315 313 310 297
306 46 144 104 87 40 278 285 22 126 185 214 221 294 309 322 306 300 304 295 296 308 306 315 316 321 323 318 317 326 328 326 322 319 320 317 315 317 320 320 320 323 325 323 322 318 312 307 298
83 144 47 8 51 309 301 279 245 219 222 245 274 310 313 305 300 300 301 293 287 287 275 303 310 303 300 308 314 320 316 317 316 315 316 318 315 320 318 318 317 318 320 323 320 317 312 306 299
356 41 56 109 111 160 284 269 217 238 222 226 252 304 297 302 296 290 290 277 272 281 285 292 293 300 303 302 304 309 313 315 314 312 313 315 313 316 316 316 314 313 315 319 317 314 311 306 300
241 185 121 116 266 197 151 272 264 240 231 202 285 293 286 286 289 288 279 276 295 291 297 290 290 293 288 286 296 304 307 311 313 313 312 313 312 313 312 312 310 310 311 313 314 309 308 306 301